M I D A S
Marine Information and Data Acquisition System
Tripno 2215 of the Zeeleeuw from 2011-11-18 06:19:57 to 2011-11-18 14:05:12
Back to CruiseResearch ActivitiesStationsMapUnderway DataData graphs

EquipmentUnitsComments
TimeDGPSUTC
LatitudeDGPSDM.mWGS84
LongitudeDGPSDM.mWGS84
SpeedMeteo Stationm/sRelative wind speed
DirectionMeteo StationdegRelative wind direction
TemperatureMeteo Stationdeg CelciusAir temperature
PressureMeteo StationPaAtmospheric pressure
HumidityMeteo Station%Relative humidity
Missing or incorrect values are displayed as -999
Metereological data collected by the RV Zeeleeuw from 2011-11-18 06:26:42 to 2011-11-18 14:21:20
Time Latitude Longitude Speed Direction Temperature Pressure Humidity
2011-11-18 06:27 51°13.639 2°56.02 -999 2 5.7 102130 54
2011-11-18 06:28 51°13.639 2°56.019 -999 354 5.7 102130 53
2011-11-18 06:29 51°13.639 2°56.019 -999 357 5.7 102130 53
2011-11-18 06:30 51°13.638 2°56.019 -999 282 5.7 102130 53
2011-11-18 06:31 51°13.635 2°56.017 -999 358 5.7 102130 53
2011-11-18 06:32 51°13.638 2°56.018 -999 358 5.7 102130 53
2011-11-18 06:33 51°13.636 2°56.018 -999 2 5.7 102130 53
2011-11-18 06:34 51°13.635 2°56.011 0.1 30 5.7 102130 53
2011-11-18 06:35 51°13.651 2°55.93 -999 16 5.7 102130 54
2011-11-18 06:36 51°13.669 2°55.886 1.6 7 5.7 102130 53
2011-11-18 06:37 51°13.707 2°55.806 -999 6 5.6 102130 53
2011-11-18 06:38 51°13.762 2°55.719 -999 24 5.6 102130 53
2011-11-18 06:39 51°13.828 2°55.637 0.1 360 5.6 102130 52
2011-11-18 06:40 51°13.902 2°55.611 1.3 282 5.7 102130 53
2011-11-18 06:41 51°13.958 2°55.65 -999 282 5.7 102130 53
2011-11-18 06:42 51°13.977 2°55.671 0.3 281 5.7 102120 54
2011-11-18 06:43 51°14.013 2°55.561 -999 282 5.7 102120 52
2011-11-18 06:44 51°14.096 2°55.446 0.4 78 5.7 102120 53
2011-11-18 06:45 51°14.205 2°55.364 -999 78 5.7 102130 53
2011-11-18 06:46 51°14.322 2°55.268 -999 54 5.7 102120 53
2011-11-18 06:47 51°14.443 2°55.146 -999 54 5.7 102120 53
2011-11-18 06:48 51°14.574 2°54.987 -999 311 5.7 102110 53
2011-11-18 06:49 51°14.724 2°54.82 -999 306 5.8 102120 53
2011-11-18 06:50 51°14.884 2°54.633 -999 306 5.8 102120 53
2011-11-18 06:51 51°15.055 2°54.448 0.6 308 5.9 102120 54
2011-11-18 06:52 51°15.218 2°54.23 0.3 303 5.9 102120 54
2011-11-18 06:53 51°15.384 2°54.035 0.2 306 6 102120 55
2011-11-18 06:54 51°15.547 2°53.822 3.6 302 6 102120 55
2011-11-18 06:55 51°15.713 2°53.619 0.3 308 6.1 102120 55
2011-11-18 06:56 51°15.888 2°53.421 -999 306 6.1 102120 54
2011-11-18 06:57 51°16.068 2°53.256 -999 306 6 102130 54
2011-11-18 06:58 51°16.262 2°53.119 -999 306 6.1 102130 54
2011-11-18 06:59 51°16.449 2°52.962 -999 306 6.1 102130 53
2011-11-18 07:00 51°16.643 2°52.81 -999 54 6.2 102130 54
2011-11-18 07:01 51°16.834 2°52.676 1.3 301 6.2 102130 53
2011-11-18 07:02 51°17.027 2°52.531 -999 306 6.2 102120 53
2011-11-18 07:03 51°17.216 2°52.374 -999 306 6.2 102130 54
2011-11-18 07:04 51°17.408 2°52.224 -999 306 6.3 102130 54
2011-11-18 07:05 51°17.599 2°52.062 -999 306 6.3 102130 54
2011-11-18 07:06 51°17.787 2°51.9 0.1 306 6.4 102120 54
2011-11-18 07:07 51°17.975 2°51.743 0.1 308 6.4 102130 54
2011-11-18 07:08 51°18.17 2°51.607 -999 306 6.4 102130 54
2011-11-18 07:09 51°18.365 2°51.465 -999 306 6.4 102120 54
2011-11-18 07:10 51°18.552 2°51.312 -999 306 6.5 102120 55
2011-11-18 07:11 51°18.743 2°51.149 -999 306 6.5 102130 54
2011-11-18 07:12 51°18.936 2°51.004 -999 306 6.5 102130 54
2011-11-18 07:13 51°19.125 2°50.838 -999 306 6.6 102120 54
2011-11-18 07:14 51°19.321 2°50.696 -999 306 6.6 102130 54
2011-11-18 07:15 51°19.514 2°50.554 0.1 306 6.6 102130 54
2011-11-18 07:16 51°19.711 2°50.392 1.3 303 6.6 102120 54
2011-11-18 07:17 51°19.898 2°50.232 -999 310 6.7 102130 54
2011-11-18 07:18 51°20.094 2°50.09 0.1 306 6.7 102120 54
2011-11-18 07:19 51°20.283 2°49.948 -999 58 6.7 102130 54
2011-11-18 07:20 51°20.496 2°49.85 -999 54 6.7 102130 54
2011-11-18 07:21 51°20.694 2°49.75 -999 54 6.6 102130 54
2011-11-18 07:22 51°20.904 2°49.635 -999 58 6.7 102130 54
2011-11-18 07:23 51°21.105 2°49.536 -999 306 6.7 102130 54
2011-11-18 07:24 51°21.309 2°49.43 -999 54 6.7 102130 54
2011-11-18 07:25 51°21.512 2°49.317 -999 54 6.7 102120 54
2011-11-18 07:26 51°21.692 2°49.161 3.7 308 6.8 102120 55
2011-11-18 07:27 51°21.851 2°48.937 3.6 303 6.9 102120 53
2011-11-18 07:28 51°22.007 2°48.729 0.4 309 6.9 102130 54
2011-11-18 07:29 51°22.173 2°48.507 3.9 307 6.9 102120 53
2011-11-18 07:30 51°22.334 2°48.301 5.8 306 7 102120 53
2011-11-18 07:31 51°22.473 2°48.05 5.7 304 7 102120 53
2011-11-18 07:32 51°22.587 2°47.781 5.4 311 7 102110 53
2011-11-18 07:33 51°22.71 2°47.506 5.7 304 7.2 102120 55
2011-11-18 07:34 51°22.831 2°47.241 6.6 304 7.2 102110 55
2011-11-18 07:35 51°22.954 2°46.971 6 309 7.2 102120 53
2011-11-18 07:36 51°23.081 2°46.699 5.6 310 7.2 102120 54
2011-11-18 07:37 51°23.209 2°46.433 6.3 310 7.3 102120 53
2011-11-18 07:38 51°23.327 2°46.158 6.4 308 7.2 102120 55
2011-11-18 07:39 51°23.442 2°45.887 5.6 304 7.3 102120 55
2011-11-18 07:40 51°23.571 2°45.613 5.5 307 7.3 102110 55
2011-11-18 07:41 51°23.697 2°45.352 5 304 7.4 102120 54
2011-11-18 07:42 51°23.816 2°45.08 6.1 306 7.4 102110 54
2011-11-18 07:43 51°23.934 2°44.806 6.2 307 7.5 102120 53
2011-11-18 07:44 51°24.048 2°44.537 5.4 303 7.5 102120 55
2011-11-18 07:45 51°24.18 2°44.264 7 304 7.5 102120 55
2011-11-18 07:46 51°24.305 2°43.999 6.4 282 7.6 102120 55
2011-11-18 07:47 51°24.414 2°43.754 4.5 303 7.6 102120 55
2011-11-18 07:48 51°24.485 2°43.617 4.1 304 7.6 102130 53
2011-11-18 07:49 51°24.537 2°43.531 5.2 57 7.5 102120 55
2011-11-18 07:50 51°24.572 2°43.517 -999 78 7.7 102130 55
2011-11-18 07:51 51°24.619 2°43.547 -999 26 7.6 102140 54
2011-11-18 07:52 51°24.644 2°43.614 -999 5 7.5 102140 54
2011-11-18 07:53 51°24.653 2°43.668 -999 6 7.6 102130 54
2011-11-18 07:54 51°24.667 2°43.706 -999 6 7.6 102130 54
2011-11-18 07:55 51°24.687 2°43.721 -999 7 7.5 102130 54
2011-11-18 07:56 51°24.706 2°43.734 -999 18 7.5 102130 54
2011-11-18 07:57 51°24.729 2°43.749 -999 16 7.6 102140 54
2011-11-18 07:58 51°24.739 2°43.802 -999 347 7.6 102140 54
2011-11-18 07:59 51°24.7 2°43.831 -999 306 7.5 102110 54
2011-11-18 08:00 51°24.655 2°43.758 -999 306 7.5 102110 54
2011-11-18 08:01 51°24.633 2°43.692 8.3 304 7.4 102120 54
2011-11-18 08:02 51°24.649 2°43.693 7.1 57 7.4 102140 54
2011-11-18 08:03 51°24.665 2°43.707 6.8 51 7.4 102150 53
2011-11-18 08:04 51°24.681 2°43.718 7.7 53 7.5 102150 55
2011-11-18 08:05 51°24.691 2°43.738 6.3 52 7.5 102150 53
2011-11-18 08:06 51°24.695 2°43.755 6.9 54 7.5 102140 55
2011-11-18 08:07 51°24.706 2°43.767 3.3 50 7.5 102150 55
2011-11-18 08:08 51°24.726 2°43.773 8 55 7.5 102150 53
2011-11-18 08:09 51°24.755 2°43.764 6.7 56 7.5 102150 53
2011-11-18 08:10 51°24.778 2°43.732 7.4 305 7.6 102150 54
2011-11-18 08:11 51°24.781 2°43.686 8.2 305 7.7 102140 54
2011-11-18 08:12 51°24.774 2°43.658 7.8 282 7.7 102130 54
2011-11-18 08:13 51°24.77 2°43.649 7.5 308 7.6 102130 55
2011-11-18 08:14 51°24.77 2°43.646 8.6 325 7.6 102120 55
2011-11-18 08:15 51°24.773 2°43.648 8.2 331 7.6 102140 55
2011-11-18 08:16 51°24.77 2°43.656 7 334 7.5 102140 54
2011-11-18 08:17 51°24.765 2°43.674 8.2 334 7.5 102140 55
2011-11-18 08:18 51°24.767 2°43.689 7.7 335 7.5 102130 53
2011-11-18 08:19 51°24.772 2°43.703 6.8 341 7.5 102150 55
2011-11-18 08:20 51°24.782 2°43.716 7.1 339 7.6 102150 54
2011-11-18 08:21 51°24.797 2°43.728 7.7 346 7.5 102150 55
2011-11-18 08:22 51°24.815 2°43.739 6.4 354 7.4 102140 55
2011-11-18 08:23 51°24.828 2°43.759 8.4 356 7.4 102140 53
2011-11-18 08:24 51°24.833 2°43.789 7.4 278 7.4 102140 55
2011-11-18 08:25 51°24.829 2°43.811 9 331 7.5 102140 53
2011-11-18 08:26 51°24.819 2°43.814 8.7 303 7.4 102130 53
2011-11-18 08:27 51°24.808 2°43.803 8.9 307 7.4 102120 54
2011-11-18 08:28 51°24.794 2°43.793 7.9 325 7.5 102130 55
2011-11-18 08:29 51°24.777 2°43.789 8.3 329 7.4 102140 55
2011-11-18 08:30 51°24.757 2°43.794 7.2 330 7.5 102140 53
2011-11-18 08:31 51°24.734 2°43.803 8.7 330 7.5 102150 54
2011-11-18 08:32 51°24.722 2°43.816 8.5 333 7.5 102140 54
2011-11-18 08:33 51°24.72 2°43.825 7.5 332 7.5 102140 54
2011-11-18 08:34 51°24.726 2°43.831 7.6 303 7.4 102140 54
2011-11-18 08:35 51°24.74 2°43.834 6.5 322 7.3 102150 53
2011-11-18 08:36 51°24.76 2°43.834 7.5 308 7.4 102130 55
2011-11-18 08:37 51°24.785 2°43.837 7.2 279 7.4 102140 55
2011-11-18 08:38 51°24.806 2°43.838 6.8 309 7.5 102150 53
2011-11-18 08:39 51°24.815 2°43.815 8.1 311 7.5 102150 55
2011-11-18 08:40 51°24.805 2°43.779 9.2 308 7.5 102140 53
2011-11-18 08:41 51°24.789 2°43.739 7.8 308 7.5 102140 55
2011-11-18 08:42 51°24.785 2°43.715 7.5 306 7.5 102140 54
2011-11-18 08:43 51°24.789 2°43.696 7.3 303 7.5 102150 55
2011-11-18 08:44 51°24.801 2°43.682 8.2 303 7.5 102150 53
2011-11-18 08:45 51°24.816 2°43.668 8.9 308 7.6 102150 55
2011-11-18 08:46 51°24.832 2°43.652 9.3 286 7.6 102160 53
2011-11-18 08:47 51°24.824 2°43.611 7.5 280 7.7 102160 55
2011-11-18 08:48 51°24.794 2°43.608 8.3 281 7.6 102140 55
2011-11-18 08:49 51°24.759 2°43.634 9.7 279 7.4 102140 55
2011-11-18 08:50 51°24.741 2°43.64 7.6 285 7.5 102140 54
2011-11-18 08:51 51°24.746 2°43.638 8.1 282 7.4 102140 54
2011-11-18 08:52 51°24.775 2°43.648 7.4 285 7.5 102150 55
2011-11-18 08:53 51°24.804 2°43.666 8.2 280 7.6 102150 53
2011-11-18 08:54 51°24.825 2°43.682 10.7 281 7.7 102150 55
2011-11-18 08:55 51°24.843 2°43.694 5.9 283 7.6 102160 55
2011-11-18 08:56 51°24.859 2°43.702 6.2 286 7.7 102160 53
2011-11-18 08:57 51°24.875 2°43.702 5.9 286 7.7 102160 55
2011-11-18 08:58 51°24.875 2°43.64 7.2 278 7.6 102160 55
2011-11-18 08:59 51°24.827 2°43.62 8.9 332 7.6 102120 54
2011-11-18 09:00 51°24.785 2°43.633 9.2 285 7.5 102130 53
2011-11-18 09:01 51°24.761 2°43.627 9.3 284 7.5 102120 54
2011-11-18 09:02 51°24.755 2°43.604 8.4 282 7.6 102140 55
2011-11-18 09:03 51°24.76 2°43.582 7.3 280 7.7 102150 53
2011-11-18 09:04 51°24.772 2°43.564 7.2 283 7.6 102160 55
2011-11-18 09:05 51°24.788 2°43.55 7.8 280 7.7 102150 54
2011-11-18 09:06 51°24.805 2°43.542 8.6 281 7.7 102150 54
2011-11-18 09:07 51°24.816 2°43.507 8.5 281 7.8 102160 55
2011-11-18 09:08 51°24.804 2°43.463 7.6 279 7.7 102150 54
2011-11-18 09:09 51°24.779 2°43.462 9 280 7.7 102130 53
2011-11-18 09:10 51°24.768 2°43.518 8.6 356 7.6 102130 53
2011-11-18 09:11 51°24.763 2°43.566 7.9 353 7.5 102130 54
2011-11-18 09:12 51°24.763 2°43.595 8.4 359 7.5 102140 54
2011-11-18 09:13 51°24.771 2°43.614 8.8 355 7.5 102130 55
2011-11-18 09:14 51°24.784 2°43.623 8.8 359 7.6 102130 53
2011-11-18 09:15 51°24.801 2°43.628 7.2 9 7.5 102140 54
2011-11-18 09:16 51°24.818 2°43.627 9.2 16 7.6 102140 53
2011-11-18 09:17 51°24.836 2°43.627 7.9 21 7.7 102140 53
2011-11-18 09:18 51°24.854 2°43.646 6.8 2 7.6 102140 55
2011-11-18 09:19 51°24.842 2°43.701 7.7 285 7.6 102140 55
2011-11-18 09:20 51°24.819 2°43.715 7.8 281 7.6 102140 55
2011-11-18 09:21 51°24.806 2°43.71 8.6 280 7.5 102130 55
2011-11-18 09:22 51°24.807 2°43.696 8.6 280 7.5 102120 54
2011-11-18 09:23 51°24.812 2°43.671 10.7 280 7.5 102130 55
2011-11-18 09:24 51°24.8 2°43.642 10.5 282 7.6 102130 55
2011-11-18 09:25 51°24.786 2°43.632 8.1 279 7.5 102120 55
2011-11-18 09:26 51°24.772 2°43.642 9 282 7.5 102130 55
2011-11-18 09:27 51°24.77 2°43.649 8.4 280 7.4 102140 54
2011-11-18 09:28 51°24.778 2°43.652 9.2 285 7.5 102140 54
2011-11-18 09:29 51°24.794 2°43.649 8.3 353 7.5 102140 54
2011-11-18 09:30 51°24.813 2°43.636 5.6 4 7.5 102130 52
2011-11-18 09:31 51°24.83 2°43.621 8.5 17 7.6 102140 53
2011-11-18 09:32 51°24.838 2°43.659 7.3 357 7.6 102130 54
2011-11-18 09:33 51°24.824 2°43.699 9.1 285 7.7 102130 53
2011-11-18 09:34 51°24.809 2°43.711 10.2 284 7.7 102140 55
2011-11-18 09:35 51°24.807 2°43.709 9.9 281 7.6 102140 54
2011-11-18 09:36 51°24.814 2°43.705 7.8 279 7.6 102150 55
2011-11-18 09:37 51°24.827 2°43.699 8.4 286 7.5 102140 53
2011-11-18 09:38 51°24.833 2°43.688 8.5 283 7.5 102130 52
2011-11-18 09:39 51°24.826 2°43.666 8.8 281 7.5 102140 55
2011-11-18 09:40 51°24.807 2°43.647 10.3 279 7.7 102130 55
2011-11-18 09:41 51°24.783 2°43.643 8.8 282 7.7 102140 53
2011-11-18 09:42 51°24.786 2°43.637 7.4 284 7.7 102140 55
2011-11-18 09:43 51°24.808 2°43.623 7.1 283 7.6 102150 55
2011-11-18 09:44 51°24.832 2°43.605 6.4 358 7.5 102140 54
2011-11-18 09:45 51°24.831 2°43.629 8.4 278 7.7 102130 55
2011-11-18 09:46 51°24.819 2°43.647 8.8 336 7.6 102140 52
2011-11-18 09:47 51°24.807 2°43.654 8.3 332 7.7 102140 54
2011-11-18 09:48 51°24.804 2°43.653 7.1 335 7.8 102140 53
2011-11-18 09:49 51°24.809 2°43.65 8.1 335 7.7 102150 54
2011-11-18 09:50 51°24.819 2°43.648 9 344 7.7 102160 55
2011-11-18 09:51 51°24.83 2°43.647 8.1 352 7.7 102140 55
2011-11-18 09:52 51°24.829 2°43.669 8.5 342 7.6 102140 54
2011-11-18 09:53 51°24.802 2°43.687 7.4 332 7.7 102150 55
2011-11-18 09:54 51°24.79 2°43.683 7.3 330 7.7 102160 54
2011-11-18 09:55 51°24.792 2°43.678 8.5 324 7.6 102140 54
2011-11-18 09:56 51°24.803 2°43.668 6.6 321 7.7 102140 55
2011-11-18 09:57 51°24.82 2°43.658 9.1 305 7.7 102150 54
2011-11-18 09:58 51°24.835 2°43.644 9.8 304 7.6 102140 55
2011-11-18 09:59 51°24.823 2°43.619 8.9 331 7.7 102140 54
2011-11-18 10:00 51°24.8 2°43.625 9.6 341 7.8 102160 53
2011-11-18 10:01 51°24.791 2°43.639 8 347 7.8 102140 55
2011-11-18 10:02 51°24.795 2°43.645 7.5 357 7.7 102150 54
2011-11-18 10:03 51°24.804 2°43.656 7.4 356 7.8 102150 54
2011-11-18 10:04 51°24.796 2°43.685 8.1 340 7.7 102150 55
2011-11-18 10:05 51°24.785 2°43.696 8.9 338 7.7 102160 55
2011-11-18 10:06 51°24.786 2°43.694 8.1 337 7.7 102160 55
2011-11-18 10:07 51°24.795 2°43.688 9.2 346 7.7 102150 54
2011-11-18 10:08 51°24.811 2°43.678 8.3 7 7.9 102150 53
2011-11-18 10:09 51°24.828 2°43.665 9.3 15 7.8 102150 55
2011-11-18 10:10 51°24.831 2°43.702 9 350 7.8 102150 55
2011-11-18 10:11 51°24.804 2°43.734 9.1 330 8 102150 55
2011-11-18 10:12 51°24.784 2°43.728 8.5 310 8 102150 53
2011-11-18 10:13 51°24.79 2°43.713 9.5 305 7.9 102160 54
2011-11-18 10:14 51°24.807 2°43.707 7.8 306 7.9 102170 53
2011-11-18 10:15 51°24.821 2°43.701 5.9 303 7.9 102180 54
2011-11-18 10:16 51°24.831 2°43.668 9.1 304 8 102180 55
2011-11-18 10:17 51°24.823 2°43.617 9.9 308 7.9 102170 54
2011-11-18 10:18 51°24.8 2°43.584 8.7 331 7.9 102150 55
2011-11-18 10:19 51°24.782 2°43.585 8.1 346 8 102160 55
2011-11-18 10:20 51°24.779 2°43.596 10.8 351 8 102160 53
2011-11-18 10:21 51°24.784 2°43.602 9.8 1 8 102160 55
2011-11-18 10:22 51°24.793 2°43.602 7.6 7 8 102160 54
2011-11-18 10:23 51°24.806 2°43.599 8.2 10 8.1 102160 54
2011-11-18 10:24 51°24.809 2°43.621 11 357 8.2 102160 53
2011-11-18 10:25 51°24.797 2°43.646 8.8 350 8.1 102160 53
2011-11-18 10:26 51°24.794 2°43.657 9.1 350 8 102150 55
2011-11-18 10:27 51°24.792 2°43.666 8.7 349 8 102170 55
2011-11-18 10:28 51°24.797 2°43.667 8.4 348 8 102160 55
2011-11-18 10:29 51°24.809 2°43.662 8.7 359 8 102150 53
2011-11-18 10:30 51°24.823 2°43.651 8.7 20 8.1 102150 55
2011-11-18 10:31 51°24.836 2°43.64 9 18 8.1 102160 55
2011-11-18 10:32 51°24.848 2°43.644 9.9 11 8.1 102160 54
2011-11-18 10:33 51°24.854 2°43.661 8.5 4 8.2 102150 54
2011-11-18 10:34 51°24.843 2°43.691 7.7 343 8.1 102150 55
2011-11-18 10:35 51°24.828 2°43.7 8.5 336 8.2 102160 54
2011-11-18 10:36 51°24.82 2°43.7 8.7 335 8.2 102160 54
2011-11-18 10:37 51°24.819 2°43.697 9.2 341 8.2 102160 54
2011-11-18 10:38 51°24.818 2°43.696 8.8 340 8.1 102150 54
2011-11-18 10:39 51°24.811 2°43.693 8.7 335 8.2 102150 53
2011-11-18 10:40 51°24.808 2°43.683 7 330 8.3 102160 53
2011-11-18 10:41 51°24.808 2°43.67 9.1 326 8.4 102160 55
2011-11-18 10:42 51°24.807 2°43.653 8.9 305 8.4 102150 55
2011-11-18 10:43 51°24.807 2°43.623 8.1 308 8.4 102150 54
2011-11-18 10:44 51°24.809 2°43.584 8.9 304 8.3 102160 55
2011-11-18 10:45 51°24.808 2°43.535 8.7 308 8.4 102160 54
2011-11-18 10:46 51°24.803 2°43.485 8.7 305 8.5 102160 54
2011-11-18 10:47 51°24.796 2°43.434 9 308 8.5 102150 55
2011-11-18 10:48 51°24.795 2°43.391 9.7 304 8.5 102150 54
2011-11-18 10:49 51°24.799 2°43.356 9 308 8.5 102150 54
2011-11-18 10:50 51°24.8 2°43.31 8.5 302 8.5 102150 55
2011-11-18 10:51 51°24.792 2°43.232 8.9 309 8.6 102130 55
2011-11-18 10:52 51°24.806 2°43.147 7.4 4 8.5 102140 54
2011-11-18 10:53 51°24.844 2°43.079 7.1 57 8.6 102150 55
2011-11-18 10:54 51°24.882 2°43.033 7.6 53 8.5 102150 55
2011-11-18 10:55 51°24.918 2°42.999 4.5 56 8.5 102140 55
2011-11-18 10:56 51°24.96 2°43.007 7 22 8.4 102150 53
2011-11-18 10:57 51°24.963 2°43.074 11.2 354 8.4 102140 54
2011-11-18 10:58 51°24.918 2°43.146 11.3 347 8.4 102110 53
2011-11-18 10:59 51°24.849 2°43.278 10.5 349 8.4 102100 55
2011-11-18 11:00 51°24.77 2°43.426 11.6 350 8.4 102090 55
2011-11-18 11:01 51°24.692 2°43.564 12 348 8.5 102080 54
2011-11-18 11:02 51°24.657 2°43.663 9.2 3 8.4 102110 55
2011-11-18 11:03 51°24.656 2°43.711 8.8 9 8.5 102130 55
2011-11-18 11:04 51°24.663 2°43.711 10.6 9 8.4 102130 55
2011-11-18 11:05 51°24.67 2°43.711 9.2 11 8.5 102120 55
2011-11-18 11:06 51°24.678 2°43.703 8 12 8.4 102120 54
2011-11-18 11:07 51°24.686 2°43.686 8.6 14 8.5 102120 55
2011-11-18 11:08 51°24.691 2°43.687 7.7 1 8.5 102120 54
2011-11-18 11:09 51°24.67 2°43.722 9.4 343 8.5 102110 55
2011-11-18 11:10 51°24.666 2°43.719 7.9 346 8.4 102110 54
2011-11-18 11:11 51°24.675 2°43.706 7.2 2 8.4 102100 54
2011-11-18 11:12 51°24.684 2°43.686 9.8 15 8.5 102110 53
2011-11-18 11:13 51°24.693 2°43.665 9.2 21 8.5 102110 53
2011-11-18 11:14 51°24.701 2°43.645 7.7 23 8.6 102120 54
2011-11-18 11:15 51°24.706 2°43.662 9.3 3 8.6 102110 55
2011-11-18 11:16 51°24.692 2°43.693 8.5 351 8.5 102110 54
2011-11-18 11:17 51°24.678 2°43.723 9 6 8.6 102110 53
2011-11-18 11:18 51°24.672 2°43.744 8.9 359 8.6 102110 53
2011-11-18 11:19 51°24.674 2°43.744 7.8 1 8.7 102110 53
2011-11-18 11:20 51°24.679 2°43.735 7.9 2 8.6 102100 55
2011-11-18 11:21 51°24.686 2°43.722 8.7 7 8.6 102110 53
2011-11-18 11:22 51°24.687 2°43.737 9.8 358 8.6 102120 54
2011-11-18 11:23 51°24.67 2°43.761 9.5 348 8.7 102100 53
2011-11-18 11:24 51°24.66 2°43.764 9.9 350 8.6 102090 53
2011-11-18 11:25 51°24.664 2°43.755 7 2 8.7 102100 53
2011-11-18 11:26 51°24.67 2°43.745 8.1 6 8.7 102110 55
2011-11-18 11:27 51°24.675 2°43.738 8.1 19 8.8 102120 54
2011-11-18 11:28 51°24.678 2°43.695 7.4 28 8.8 102120 55
2011-11-18 11:29 51°24.685 2°43.685 6.9 18 9 102120 53
2011-11-18 11:30 51°24.692 2°43.691 7.9 26 9 102120 52
2011-11-18 11:31 51°24.727 2°43.708 7.2 55 9 102120 53
2011-11-18 11:32 51°24.736 2°43.689 8 43 8.9 102120 53
2011-11-18 11:33 51°24.696 2°43.647 11.7 55 8.9 102120 54
2011-11-18 11:34 51°24.633 2°43.632 9.2 55 9.2 102110 55
2011-11-18 11:35 51°24.592 2°43.636 7.5 54 9.1 102100 53
2011-11-18 11:36 51°24.609 2°43.638 8 25 9.1 102120 54
2011-11-18 11:37 51°24.609 2°43.698 8.6 357 9.1 102110 54
2011-11-18 11:38 51°24.575 2°43.759 9.5 12 9 102080 52
2011-11-18 11:39 51°24.605 2°43.806 7 45 9.1 102110 53
2011-11-18 11:40 51°24.622 2°43.789 6.6 50 9.1 102110 52
2011-11-18 11:41 51°24.636 2°43.761 8.4 56 9.1 102100 54
2011-11-18 11:42 51°24.649 2°43.729 8.4 54 9.1 102100 54
2011-11-18 11:43 51°24.658 2°43.696 8.1 52 9.1 102080 54
2011-11-18 11:44 51°24.655 2°43.696 9.1 56 9.1 102090 54
2011-11-18 11:45 51°24.648 2°43.702 8.8 54 9 102090 53
2011-11-18 11:46 51°24.659 2°43.652 8 280 9.1 102090 53
2011-11-18 11:47 51°24.619 2°43.549 8.7 327 9.2 102080 53
2011-11-18 11:48 51°24.54 2°43.592 12.1 277 9.2 102060 53
2011-11-18 11:49 51°24.481 2°43.719 7.3 3 9.1 102050 54
2011-11-18 11:50 51°24.501 2°43.795 6.9 33 9.1 102090 53
2011-11-18 11:51 51°24.542 2°43.855 8.2 28 9.2 102100 53
2011-11-18 11:52 51°24.583 2°43.89 6.2 80 9.2 102100 52
2011-11-18 11:53 51°24.604 2°43.862 6.3 77 9.3 102090 52
2011-11-18 11:54 51°24.627 2°43.829 6.3 76 9.3 102100 51
2011-11-18 11:55 51°24.645 2°43.796 6.4 56 9.4 102090 53
2011-11-18 11:56 51°24.659 2°43.762 8.9 56 9.4 102090 54
2011-11-18 11:57 51°24.666 2°43.73 7.6 282 9.3 102080 53
2011-11-18 11:58 51°24.67 2°43.702 8.4 282 9.3 102070 53
2011-11-18 11:59 51°24.673 2°43.674 7.7 286 9.3 102080 53
2011-11-18 12:00 51°24.677 2°43.648 7.4 280 9.4 102080 53
2011-11-18 12:01 51°24.67 2°43.592 9.9 283 9.4 102090 52
2011-11-18 12:02 51°24.623 2°43.535 8.8 338 9.4 102050 50
2011-11-18 12:03 51°24.589 2°43.577 9.5 12 9.4 102050 53
2011-11-18 12:04 51°24.583 2°43.677 8.4 5 9.4 102060 53
2011-11-18 12:05 51°24.548 2°43.766 10.9 358 9.5 102060 53
2011-11-18 12:06 51°24.547 2°43.824 9.2 27 9.5 102050 53
2011-11-18 12:07 51°24.573 2°43.865 7.2 34 9.6 102070 54
2011-11-18 12:08 51°24.609 2°43.89 9.6 36 9.5 102070 52
2011-11-18 12:09 51°24.619 2°43.883 7.9 31 9.5 102060 53
2011-11-18 12:10 51°24.633 2°43.877 7.6 40 9.5 102060 51
2011-11-18 12:11 51°24.672 2°43.849 9.1 80 9.6 102080 52
2011-11-18 12:12 51°24.673 2°43.829 8.7 74 9.5 102090 53
2011-11-18 12:13 51°24.671 2°43.811 8.2 75 9.5 102080 53
2011-11-18 12:14 51°24.671 2°43.791 6.4 77 9.5 102080 52
2011-11-18 12:15 51°24.674 2°43.766 7.7 52 9.6 102080 53
2011-11-18 12:16 51°24.677 2°43.742 9.1 59 9.6 102080 53
2011-11-18 12:17 51°24.676 2°43.728 6.4 285 9.6 102070 53
2011-11-18 12:18 51°24.677 2°43.717 5.9 284 9.7 102070 51
2011-11-18 12:19 51°24.679 2°43.704 7.2 281 9.7 102080 53
2011-11-18 12:20 51°24.681 2°43.689 6.7 309 9.7 102080 52
2011-11-18 12:21 51°24.684 2°43.671 7.5 78 9.7 102080 51
2011-11-18 12:22 51°24.687 2°43.649 7.2 305 9.8 102070 53
2011-11-18 12:23 51°24.688 2°43.625 6.4 308 9.8 102070 51
2011-11-18 12:24 51°24.691 2°43.599 7.5 282 9.8 102070 53
2011-11-18 12:25 51°24.694 2°43.574 10 303 9.8 102070 52
2011-11-18 12:26 51°24.684 2°43.507 8.6 280 9.8 102060 51
2011-11-18 12:27 51°24.64 2°43.45 9.3 285 9.9 102030 53
2011-11-18 12:28 51°24.581 2°43.449 9.2 283 10 102040 52
2011-11-18 12:29 51°24.53 2°43.504 10.8 351 9.9 102030 52
2011-11-18 12:30 51°24.509 2°43.595 8.3 16 9.8 102030 51
2011-11-18 12:31 51°24.512 2°43.694 11.6 8 9.7 102030 52
2011-11-18 12:32 51°24.508 2°43.797 9.1 7 9.7 102040 51
2011-11-18 12:33 51°24.522 2°43.885 7.6 36 9.7 102030 53
2011-11-18 12:34 51°24.574 2°43.876 4.9 58 9.8 102060 52
2011-11-18 12:35 51°24.641 2°43.829 3.8 77 10.1 102060 53
2011-11-18 12:36 51°24.675 2°43.795 7.2 50 10.3 102050 52
2011-11-18 12:37 51°24.674 2°43.773 8.5 33 10.2 102040 53
2011-11-18 12:38 51°24.675 2°43.745 7.1 24 10 102060 51
2011-11-18 12:39 51°24.673 2°43.753 6.5 8 10 102050 53
2011-11-18 12:40 51°24.67 2°43.751 7.8 6 10 102030 51
2011-11-18 12:41 51°24.671 2°43.735 7.9 14 9.9 102050 51
2011-11-18 12:42 51°24.673 2°43.716 6.6 16 9.9 102040 51
2011-11-18 12:43 51°24.675 2°43.694 10.3 16 10 102050 52
2011-11-18 12:44 51°24.679 2°43.668 8.7 23 9.9 102060 52
2011-11-18 12:45 51°24.682 2°43.643 8.4 23 9.9 102050 52
2011-11-18 12:46 51°24.687 2°43.647 9.5 16 9.9 102040 52
2011-11-18 12:47 51°24.679 2°43.678 10.2 359 9.9 102040 53
2011-11-18 12:48 51°24.667 2°43.713 10.6 16 9.8 102030 52
2011-11-18 12:49 51°24.674 2°43.736 7.5 24 9.8 102050 51
2011-11-18 12:50 51°24.675 2°43.741 7.9 19 9.9 102050 52
2011-11-18 12:51 51°24.675 2°43.731 9.7 14 10 102030 52
2011-11-18 12:52 51°24.676 2°43.717 9.6 12 10 102030 52
2011-11-18 12:53 51°24.678 2°43.7 8.9 15 10 102040 53
2011-11-18 12:54 51°24.681 2°43.68 9.2 18 10.1 102050 53
2011-11-18 12:55 51°24.683 2°43.657 7.2 17 10.1 102030 52
2011-11-18 12:56 51°24.686 2°43.636 7.4 18 10.1 102040 51
2011-11-18 12:57 51°24.689 2°43.614 8.3 19 10.1 102040 51
2011-11-18 12:58 51°24.693 2°43.594 9 23 10.1 102040 52
2011-11-18 12:59 51°24.696 2°43.573 8 23 10 102040 52
2011-11-18 13:00 51°24.699 2°43.552 7.3 22 10 102040 51
2011-11-18 13:01 51°24.7 2°43.528 8.6 22 9.9 102020 52
2011-11-18 13:02 51°24.702 2°43.504 9 22 10 102030 51
2011-11-18 13:03 51°24.703 2°43.489 10.1 14 10 102040 53
2011-11-18 13:04 51°24.694 2°43.515 7.4 357 9.9 102020 53
2011-11-18 13:05 51°24.654 2°43.578 11.3 352 10 102020 52
2011-11-18 13:06 51°24.573 2°43.722 14.6 283 9.9 102000 51
2011-11-18 13:07 51°24.457 2°43.874 17 346 9.9 102000 51
2011-11-18 13:08 51°24.344 2°44.037 6.7 281 10 101990 52
2011-11-18 13:09 51°24.237 2°44.273 14.3 279 10 101980 52
2011-11-18 13:10 51°24.107 2°44.511 12.9 280 10 101980 51
2011-11-18 13:11 51°23.959 2°44.726 7.5 279 10 101990 51
2011-11-18 13:12 51°23.816 2°44.948 6.3 279 10.1 101980 52
2011-11-18 13:13 51°23.674 2°45.174 12.9 284 10.1 101970 52
2011-11-18 13:14 51°23.534 2°45.407 16.2 284 10 101960 50
2011-11-18 13:15 51°23.39 2°45.635 10.6 283 10 101990 51
2011-11-18 13:16 51°23.243 2°45.858 10.7 282 10 101990 52
2011-11-18 13:17 51°23.106 2°46.095 15.1 282 10 102000 52
2011-11-18 13:18 51°22.968 2°46.33 17 280 9.9 101990 51
2011-11-18 13:19 51°22.829 2°46.55 6.8 282 10 102000 52
2011-11-18 13:20 51°22.735 2°46.673 14 283 9.9 102000 52
2011-11-18 13:21 51°22.641 2°46.727 12.2 282 9.9 102000 52
2011-11-18 13:22 51°22.489 2°46.739 14.9 285 10 102000 51
2011-11-18 13:23 51°22.299 2°46.753 12.8 284 10.1 102000 51
2011-11-18 13:24 51°22.102 2°46.818 16.2 283 10.1 101990 52
2011-11-18 13:25 51°21.909 2°46.927 16.7 282 10.1 101990 52
2011-11-18 13:26 51°21.729 2°47.07 12.3 283 10.1 102000 52
2011-11-18 13:27 51°21.572 2°47.261 17.4 281 10.1 101980 51
2011-11-18 13:28 51°21.411 2°47.443 18.3 280 10.1 102000 51
2011-11-18 13:29 51°21.252 2°47.626 17.7 283 10.1 102010 51
2011-11-18 13:30 51°21.085 2°47.799 11 283 10 102010 50
2011-11-18 13:31 51°20.922 2°47.98 6.7 286 10 102010 52
2011-11-18 13:32 51°20.753 2°48.151 17 282 10 102010 52
2011-11-18 13:33 51°20.588 2°48.331 6.8 281 10 102000 51
2011-11-18 13:34 51°20.425 2°48.517 15.9 282 10 102010 52
2011-11-18 13:35 51°20.262 2°48.702 13.7 286 10 102000 52
2011-11-18 13:36 51°20.093 2°48.874 11.8 279 10 102010 51
2011-11-18 13:37 51°19.927 2°49.052 16.1 285 10 101990 52
2011-11-18 13:38 51°19.758 2°49.225 6.6 281 10 102000 51
2011-11-18 13:39 51°19.598 2°49.414 13.9 281 10 102010 51
2011-11-18 13:40 51°19.447 2°49.622 10.1 281 10.1 102020 52
2011-11-18 13:41 51°19.295 2°49.828 6.5 280 10.1 102020 52
2011-11-18 13:42 51°19.134 2°50.016 6.7 280 10.1 102020 51
2011-11-18 13:43 51°18.978 2°50.221 9.6 282 10.1 102020 52
2011-11-18 13:44 51°18.818 2°50.418 13.3 286 10.1 102020 52
2011-11-18 13:45 51°18.662 2°50.625 9.6 280 10.2 102020 52
2011-11-18 13:46 51°18.498 2°50.822 17.9 340 10.2 102010 51
2011-11-18 13:47 51°18.344 2°51.031 14.3 343 10.2 102010 51
2011-11-18 13:48 51°18.186 2°51.239 14.5 341 10.2 102010 51
2011-11-18 13:49 51°18.027 2°51.442 10.7 339 10.2 102010 52
2011-11-18 13:50 51°17.864 2°51.64 9.8 341 10.2 102010 51
2011-11-18 13:51 51°17.698 2°51.831 6.4 339 10.3 102010 51
2011-11-18 13:52 51°17.519 2°51.993 11.3 336 10.3 102010 51
2011-11-18 13:53 51°17.345 2°52.162 15.8 340 10.3 102010 51
2011-11-18 13:54 51°17.169 2°52.341 14.5 336 10.3 102010 50
2011-11-18 13:55 51°16.994 2°52.503 14.6 338 10.3 102010 50
2011-11-18 13:56 51°16.821 2°52.687 12 339 10.3 102010 51
2011-11-18 13:57 51°16.65 2°52.868 15.3 337 10.3 102010 50
2011-11-18 13:58 51°16.468 2°53.016 14.4 330 10.4 102010 51
2011-11-18 13:59 51°16.275 2°53.126 10 336 10.3 102000 50
2011-11-18 14:00 51°16.092 2°53.265 13.2 335 10.2 102020 51
2011-11-18 14:01 51°15.9 2°53.374 5.6 335 10.3 102020 52
2011-11-18 14:02 51°15.718 2°53.507 12.4 333 10.2 102020 50
2011-11-18 14:03 51°15.545 2°53.674 10.7 338 10.2 102010 51
2011-11-18 14:04 51°15.386 2°53.869 14.4 340 10.2 102010 51
2011-11-18 14:05 51°15.234 2°54.086 15.3 337 10.2 102010 50
2011-11-18 14:06 51°15.078 2°54.29 6 338 10.2 102010 50
2011-11-18 14:07 51°14.929 2°54.507 9.9 335 10.2 102010 51
2011-11-18 14:08 51°14.778 2°54.71 14.4 338 10.2 102020 51
2011-11-18 14:09 51°14.619 2°54.907 5.3 334 10.2 102020 50
2011-11-18 14:10 51°14.461 2°55.102 12.8 336 10.2 102020 50
2011-11-18 14:11 51°14.296 2°55.265 9.1 331 10.1 102020 50
2011-11-18 14:12 51°14.149 2°55.417 10.5 333 10.1 102020 50
2011-11-18 14:13 51°14.031 2°55.496 8.8 331 10.1 102030 50
2011-11-18 14:14 51°13.933 2°55.557 5.6 333 10 102020 50
2011-11-18 14:15 51°13.841 2°55.619 7.2 332 10 102030 51
2011-11-18 14:16 51°13.764 2°55.696 5.7 331 10 102020 51
2011-11-18 14:17 51°13.718 2°55.779 4.6 343 10 102020 51
2011-11-18 14:18 51°13.679 2°55.863 4.7 339 10 102030 50
2011-11-18 14:19 51°13.648 2°55.935 4.9 342 10 102030 51
2011-11-18 14:20 51°13.633 2°56.005 3.5 356 10 102030 51